Location: Unspecified
(0.0000°N, 0.0000°E)
Time: 04:51:58
(UTC+00:00)

deb r/b Ablestar - Pass Details

Date: 12 February 2026
Orbit: 889 x 1146 km, 67.2° (Epoch: 11 March)

Event Time Altitude Azimuth Distance (km) Brightness Sun altitude
Rises 03:58:16 0° 17° (NNE) 3,877 ? -32.9°
Reaches altitude 10° 04:02:23 10° 40° (NE) 2,968 ? -31.9°
Maximum altitude 04:05:57 14° 71° (ENE) 2,676 ? -31.1°
Drops below altitude 10° 04:09:34 10° 102° (ESE) 3,024 ? -30.2°
Sets 04:13:47 0° 124° (SE) 3,999 ? -29.2°
